SCP
-0 -0 0 0 0 0 0 0 0 1 1 1 1 1 1 1 1 1 1 0 1 1 1 0 0 0 0 0 0 0 0 0 0 0 0 0 0 0 0 0 0 0 0
-0 -0 0 0 0 0 0 0 0 0 0 0 0 1 1 1 1 1 1 1 1 1 1 1 0 0 0 0 0 0 0 0 0 0 0 0 0 0 0 0 0 0 0
0 0 0 0 0 0 0 0 0 0 0 0 0 0 1 1 1 2 1 1 1 1 1 0 0 0 0 0 0 0 0 0 0 0 0 0 0 0 0 0 0 0 0
0 0 0 0 0 0 0 0 0 0 0 0 0 0 0 0 1 1 2 2 1 1 1 0 0 0 0 0 0 0 0 0 0 0 0 0 0 0 0 0 0 0 0
0 0 0 0 0 0 0 0 0 0 0 0 0 0 0 0 0 1 1 1 1 1 0 0 0 0 0 0 0 0 0 0 0 0 0 0 0 0 0 0 0 0 0
0 0 0 0 0 0 0 0 0 0 0 0 0 0 0 0 0 0 0 1 1 0 0 0 0 0 0 0 0 0 0 0 0 0 0 0 0 0 0 0 0 0 0
0 0 0 0 0 0 0 0 0 0 0 0 0 0 0 0 0 0 0 0 0 0 0 0 0 0 0 0 0 0 0 0 0 0 0 0 0 0 0 0 0 0 0
-0 -0 0 0 0 0 0 0 0 0 0 0 0 0 0 0 0 0 0 0 0 0 0 0 0 0 0 0 0 0 0 0 0 0 0 0 0 0 0 0 0 0 0
0 0 0 0 0 0 0 0 0 0 0 0 0 0 0 0 0 0 0 0 0 0 0 0 0 0 1 0 0 0 0 0 0 0 0 0 0 0 0 0 0 0 0
0 0 0 0 0 0 0 0 0 0 0 0 0 0 0 0 0 0 0 0 0 0 0 0 0 0 0 0 0 0 0 0 0 0 0 0 0 0 0 0 0 0 0
0 0 0 0 0 0 0 0 0 0 0 0 0 0 0 0 0 0 0 0 0 0 0 0 0 0 0 0 0 0 0 0 0 0 0 0 0 0 0 0 0 0 0
0 0 0 0 0 0 0 0 0 0 0 0 0 0 0 0 0 0 0 0 0 0 0 0 0 0 0 0 0 0 0 0 0 0 0 0 0 0 0 0 0 0 0
0 0 0 0 0 0 0 0 0 0 0 0 0 0 0 0 0 0 0 0 0 0 0 0 0 0 0 0 0 0 0 0 0 0 0 0 0 0 0 0 0 0 0
0 0 0 0 0 0 0 0 0 0 0 0 0 0 0 0 0 0 0 0 0 0 0 0 0 0 0 0 0 0 0 0 0 0 0 0 0 0 0 0 0 0 0
0 0 0 0 0 0 0 0 0 0 0 0 0 0 0 0 0 0 0 0 0 0 0 0 0 0 0 0 0 0 0 0 0 0 0 0 0 0 0 0 0 0 0
0 0 0 0 0 0 0 0 0 0 0 0 0 0 0 0 0 0 0 0 0 0 0 0 0 0 0 0 0 0 0 0 0 0 0 0 0 0 0 0 0 0 0
0 0 0 0 0 0 0 0 0 0 0 0 0 0 0 0 0 0 0 0 0 0 0 0 0 0 0 0 0 0 0 0 0 0 0 0 0 0 0 0 0 0 0
0 0 0 0 0 0 0 0 0 0 0 0 0 0 0 0 0 0 0 0 0 0 0 0 0 0 0 0 0 0 0 0 0 0 0 0 0 0 0 0 0 0 0
0 0 0 0 0 0 0 0 0 0 0 0 0 0 0 0 0 0 0 0 0 0 0 0 0 0 0 0 0 0 0 0 0 0 0 0 0 0 0 0 0 0 0
0 0 0 0 0 0 0 0 0 0 0 0 0 0 0 0 0 0 0 0 0 0 0 0 0 0 0 0 0 0 0 0 0 0 0 0 0 0 0 0 0 0 0
0 0 0 0 0 0 0 0 0 0 0 0 0 0 0 0 0 0 0 0 0 0 0 0 0 0 0 0 0 0 0 0 0 0 0 0 0 0 0 0 0 0 0
0 0 0 0 0 0 0 0 0 0 0 0 0 0 0 0 0 0 0 0 0 0 0 0 0 0 0 0 0 0 0 0 0 0 0 0 0 0 0 0 0 0 0
0 0 0 0 0 0 0 0 0 0 0 0 0 0 0 0 0 0 0 0 0 0 0 0 0 0 0 0 0 0 0 0 0 0 0 0 0 0 0 0 0 0 0
0 0 0 0 0 0 0 0 0 0 0 0 0 0 0 0 0 0 0 0 0 0 0 0 0 0 0 0 0 0 0 0 0 0 0 0 0 0 0 0 0 0 0
0 0 0 0 0 0 0 0 0 0 0 0 0 0 0 0 0 0 0 0 0 0 0 0 0 0 0 0 0 0 0 0 0 0 0 0 0 0 0 0 0 0 0
0 0 0 0 0 0 0 0 0 0 0 0 0 0 0 0 0 0 0 0 0 0 0 0 0 0 0 0 0 0 0 0 0 0 0 0 0 0 0 0 0 0 0
Wind_Speed
5 4 4 4 4 4 4 5 5 5 5 5 5 5 6 6 5 5 5 5 6 6 5 6 7 6 4 4 4 4 4 4 7 5 3 3 4 4 4 4 5 5 5
5 5 5 5 5 5 5 5 5 5 5 5 5 6 6 6 5 6 6 6 6 7 7 6 7 5 6 5 4 5 5 4 6 7 5 4 5 5 5 4 4 4 5
5 5 5 5 5 5 5 5 5 5 5 5 5 6 6 6 6 6 6 7 7 7 7 7 7 6 7 5 5 5 4 4 4 5 6 4 4 3 4 4 4 4 4
6 6 6 6 6 6 6 6 6 6 6 6 6 6 6 7 7 6 7 7 7 7 7 7 7 6 7 6 6 6 4 4 4 5 5 4 3 3 2 3 4 3 4
5 5 6 6 6 6 6 6 6 6 6 6 6 7 6 6 6 6 6 7 7 7 7 7 7 6 7 7 6 5 5 5 4 5 5 4 4 3 3 3 5 4 4
5 5 6 6 6 6 7 7 7 7 7 6 7 7 7 6 10 11 8 7 7 7 8 7 7 6 6 7 8 8 7 7 7 6 6 6 6 5 3 3 4 4 4
5 5 6 6 7 7 7 7 8 8 7 8 7 7 8 10 13 12 11 8 7 7 7 7 6 5 5 5 6 7 8 9 9 8 8 8 7 5 5 5 5 5 6
5 6 6 6 7 8 7 8 8 7 7 8 8 8 8 10 13 13 13 8 7 7 7 7 7 6 6 6 5 5 6 6 7 6 7 7 6 5 5 6 6 5 3
6 6 7 7 8 8 8 8 8 7 8 8 8 8 9 10 13 13 12 7 6 7 6 6 6 7 8 7 5 5 6 5 5 6 7 7 7 6 5 3 3 3 4
7 8 7 7 8 8 9 9 8 7 8 8 9 8 9 10 12 13 11 5 6 6 5 5 6 7 9 8 6 5 6 5 4 5 5 5 5 5 5 5 5 4 3
7 8 8 7 8 8 8 7 8 8 8 8 9 8 8 9 11 12 11 6 6 6 5 5 5 8 9 8 7 6 6 5 4 4 4 3 3 3 3 3 3 4 4
8 8 8 8 7 7 7 8 7 7 8 8 8 8 6 6 7 10 12 10 8 6 6 5 5 9 9 9 6 6 6 4 2 3 3 3 3 3 3 2 2 3 3
8 9 9 9 8 7 7 8 7 6 6 7 6 7 6 5 6 10 11 11 10 7 6 8 9 9 9 6 6 6 3 2 2 3 3 3 3 3 2 2 2 2 2
8 9 8 8 8 7 6 6 6 6 6 7 7 7 7 6 5 5 5 5 6 6 5 5 8 8 7 5 3 3 2 2 3 3 3 2 2 2 2 2 2 1 2
8 8 8 7 7 7 6 6 7 7 7 8 7 6 7 7 7 10 7 5 4 5 5 3 3 3 3 2 2 2 2 2 2 2 2 2 2 2 2 2 1 1 1
7 7 6 6 6 6 6 7 9 10 12 13 12 11 8 11 13 12 11 10 9 7 4 3 3 3 3 3 3 2 2 2 2 2 2 2 2 2 2 2 1 1 2
7 8 6 6 6 6 6 6 8 9 10 11 12 12 12 12 12 11 10 9 6 4 2 2 3 3 3 3 3 3 3 3 2 2 2 2 2 2 2 2 2 2 2
7 7 7 6 6 6 6 6 6 7 7 7 8 11 12 12 11 10 9 5 3 2 2 3 3 3 3 3 3 3 3 2 3 3 2 2 2 2 2 2 2 3 3
6 6 5 5 5 6 6 6 5 6 6 6 6 7 9 10 9 9 6 2 2 3 3 3 3 3 3 3 3 3 3 3 3 3 3 3 2 2 2 3 2 3 2
5 7 6 5 5 5 5 5 5 5 5 5 6 6 5 5 4 4 3 2 2 3 3 3 3 3 3 3 3 2 2 3 3 3 3 2 2 3 3 3 3 2 2
5 5 6 5 4 5 4 5 5 5 5 5 5 6 9 5 4 4 4 3 3 3 3 3 3 3 3 2 2 3 3 3 3 3 2 2 2 3 3 3 3 3 2
4 4 4 4 4 4 5 4 4 5 5 5 5 6 9 5 4 4 4 4 3 3 3 3 3 3 3 3 3 3 3 3 3 3 3 3 3 3 3 3 3 2 2
4 4 4 4 4 5 5 4 4 4 4 5 5 5 4 4 4 4 4 4 4 3 3 3 3 3 3 3 3 3 4 4 4 4 4 4 3 3 3 3 4 3 3
4 4 4 4 4 4 4 4 4 4 4 4 4 4 4 4 4 5 4 4 4 4 3 3 3 4 5 4 3 3 4 4 4 4 5 4 5 4 4 4 4 5 4
4 4 4 4 4 4 4 4 4 4 4 4 4 4 4 4 4 5 4 4 4 4 4 4 3 4 5 6 5 5 6 7 6 4 4 4 5 6 5 5 5 4 4
4 4 4 3 4 4 4 4 4 4 4 4 4 4 4 4 5 5 4 4 4 4 5 4 5 5 6 6 6 7 7 7 7 6 4 4 5 5 5 5 5 5 4
Wind_Direction
330 326 326 320 318 319 316 312 312 311 311 310 305 302 299 297 296 291 288 294 285 282 282 277 274 269 263 258 259 254 249 247 260 274 272 273 260 258 264 260 263 261 256
319 320 320 320 324 325 321 318 318 315 313 312 310 302 297 297 295 290 287 286 283 284 285 281 279 279 265 258 256 257 256 252 254 267 272 269 265 259 261 265 271 271 267
321 321 323 325 325 323 321 321 321 317 313 314 311 302 299 295 290 288 285 282 279 278 279 278 277 277 271 268 267 262 264 269 266 265 271 272 272 279 281 276 272 272 278
328 325 324 325 325 323 323 322 320 317 313 310 307 303 301 299 293 288 286 283 281 279 278 276 278 273 271 273 267 265 267 265 264 267 268 271 274 284 276 278 283 271 277
325 322 317 321 323 322 321 319 316 314 310 305 304 302 300 295 292 293 287 284 282 281 280 278 276 273 272 274 272 267 261 260 260 262 266 269 264 269 263 272 273 285 277
316 314 317 320 320 318 316 316 316 312 307 304 299 297 295 292 295 295 291 285 282 280 279 281 282 274 276 282 278 272 263 255 255 256 259 259 261 259 266 265 274 284 275
317 317 318 317 313 312 313 312 308 305 303 299 293 289 287 289 295 295 289 283 277 274 275 277 282 283 277 279 284 285 276 269 260 252 253 255 257 254 254 259 258 261 262
313 311 313 313 310 309 308 304 302 299 296 293 290 286 286 288 295 296 293 282 275 272 270 269 271 274 271 276 279 282 282 280 275 266 260 263 266 263 251 253 261 274 286
310 310 311 309 304 304 303 301 299 298 296 292 289 286 285 289 293 294 292 282 275 274 272 270 268 269 268 271 268 271 281 287 291 282 281 283 284 278 268 257 249 257 268
306 303 302 299 296 296 295 296 295 293 291 293 290 288 286 287 292 294 291 281 279 280 279 275 268 270 274 271 266 263 270 284 296 302 299 298 290 277 265 248 241 243 254
301 300 299 297 293 290 291 292 295 295 293 290 289 289 285 283 289 291 289 283 278 281 278 277 272 274 277 274 274 269 268 283 288 287 289 294 302 299 286 277 264 244 242
304 301 298 296 293 293 293 294 295 296 294 291 289 289 284 284 286 289 288 285 286 280 277 277 275 276 277 277 275 273 279 288 279 281 282 286 289 293 301 307 311 306 282
303 297 294 295 293 293 291 293 296 295 290 291 289 288 290 288 287 290 288 286 285 281 279 281 284 283 283 281 276 278 281 271 261 261 265 278 287 291 299 310 329 340 330
291 292 293 294 295 294 290 287 287 287 287 288 289 291 292 292 288 288 286 289 289 287 285 283 280 278 279 290 294 287 279 272 263 259 269 287 303 299 295 300 293 304 318
288 289 292 290 290 291 289 282 283 277 276 285 283 283 289 290 290 295 297 291 287 283 293 287 278 277 274 283 295 295 295 287 282 283 275 279 285 297 303 310 294 296 273
289 290 288 287 287 287 292 295 290 289 292 291 289 289 287 288 297 299 298 296 296 298 296 265 263 261 263 266 265 275 280 275 277 277 269 261 264 269 286 294 285 261 265
278 285 285 283 284 287 289 292 299 305 301 300 301 299 296 298 298 299 299 300 302 316 287 271 270 269 267 266 262 261 270 276 273 264 260 258 255 256 258 266 264 259 258
278 279 280 281 281 282 282 284 286 293 303 305 309 310 310 308 306 305 304 310 307 315 268 265 270 275 276 274 271 270 271 272 267 260 257 253 249 250 250 251 247 252 250
279 281 283 285 284 282 283 284 285 287 290 298 307 314 319 317 316 313 315 300 282 284 279 274 272 274 277 276 275 273 268 266 264 257 250 247 245 246 251 251 246 254 260
277 282 287 286 287 289 289 288 288 289 290 293 297 303 314 318 314 316 320 301 283 281 281 280 278 271 267 266 266 265 267 265 263 262 259 253 248 245 245 246 243 243 254
282 286 285 286 282 282 285 285 288 291 293 295 295 301 310 309 304 306 305 299 287 285 287 284 280 275 269 264 263 260 260 262 260 262 268 261 249 247 248 246 245 242 246
277 281 282 279 283 285 286 285 286 288 292 297 305 313 318 322 311 303 299 296 291 283 280 279 279 275 268 262 256 254 256 256 255 253 257 263 260 249 242 238 237 237 232
275 279 282 280 280 285 289 287 288 291 295 299 303 309 314 312 308 307 306 307 307 303 299 293 289 291 289 282 272 259 255 254 250 242 245 251 254 248 234 229 229 229 233
273 272 275 281 284 283 286 290 291 293 295 298 301 302 302 302 302 303 304 305 306 304 302 297 290 288 290 291 284 273 264 261 257 248 241 241 246 243 232 226 227 225 229
275 274 273 274 277 280 285 288 289 291 294 296 297 296 298 300 302 303 305 306 304 302 301 298 292 288 284 282 280 276 270 271 267 254 240 236 236 232 225 221 222 224 228
273 273 274 273 273 276 279 284 287 290 292 294 295 295 296 297 298 300 303 305 306 304 302 299 292 288 286 282 277 278 277 273 266 252 236 230 227 224 216 217 216 217 219